This is the latest recevied weather packets stored in our database for station/object CALDNA-WX. If no packets are shown the sender has not sent any weather packets the latest 10 day(s).
| Time | Temp. | Humidity | Pressure | Rain* | Wind** | Luminosity | Snow |
|---|---|---|---|---|---|---|---|
| 1777381246 | 10° C | 88% | 979.5 hPa | 0 mm | - | - | - |
| 1777380320 | 10° C | 85% | 979 hPa | 0 mm | - | - | - |
| 1777379439 | 10° C | 85% | 979 hPa | 0 mm | - | - | - |
| 1777378520 | 10.56° C | 85% | 979 hPa | 0 mm | - | - | - |
| 1777377652 | 10.56° C | 85% | 979 hPa | 0 mm | - | - | - |
| 1777376720 | 11.11° C | 87% | 978.1 hPa | 0 mm | - | - | - |
| 1777375841 | 11.11° C | 91% | 978.4 hPa | 0 mm | - | - | - |
| 1777374925 | 11.67° C | 91% | 978.4 hPa | 0 mm | - | - | - |
| 1777374050 | 12.22° C | 91% | 978.4 hPa | 0 mm | - | - | - |
| 1777373125 | 12.22° C | 90% | 978.6 hPa | 0 mm | - | - | - |
| 1777372240 | 12.22° C | 91% | 977.7 hPa | 0 mm | - | - | - |
| 1777371325 | 12.78° C | 91% | 977.7 hPa | 0.25 mm | - | - | - |
| 1777370450 | 13.89° C | 91% | 977.7 hPa | 0.25 mm | - | - | - |
| 1777369525 | 13.89° C | 92% | 976.2 hPa | 0 mm | - | - | - |
| 1777368635 | 15° C | 92% | 976.3 hPa | 0 mm | - | - | - |
| 1777367726 | 15° C | 92% | 976.3 hPa | 0 mm | - | - | - |
| 1777366842 | 15° C | 92% | 976.3 hPa | 0 mm | - | - | - |
| 1777365924 | 15° C | 90% | 975.7 hPa | 0 mm | - | - | - |
| 1777365040 | 15.56° C | 90% | 975.4 hPa | 0 mm | - | - | - |
| 1777364120 | 15° C | 90% | 975.4 hPa | 0 mm | - | - | - |
| 1777363246 | 15° C | 90% | 975.4 hPa | 0 mm | - | - | - |
| 1777362325 | 15° C | 84% | 975.8 hPa | 0 mm | - | - | - |
| 1777361439 | 15° C | 84% | 975.8 hPa | 0 mm | - | - | - |
| 1777360525 | 15° C | 84% | 975.8 hPa | 0 mm | - | - | - |
| 1777359648 | 15° C | 84% | 975.8 hPa | 0 mm | - | - | - |
* Rain latest hour (hover to see other rain measurements)
** Current wind speed in m/s (hover to see current wind gust speed)